Hourly Data Report for September 11, 2016

All times are specified in Local Standard Time (LST). Add 1 hour to adjust for Daylight Saving Time where and when it is observed.

CORAL HARBOUR A
NUNAVUT

64°11'36.000" N
83°21'34.000" W
62.20 m
2301002
71915
YZS

Download Data

Hourly Data (September 2016)
Hourly Data Report for September 11, 2016
Temp Definition
°C
Dew Point Temp Definition
°C
Rel Hum Definition
%
Wind Dir Definition
10's deg

Wind Spd Definition
km/h
Visibility Definition
km
Stn Press Definition
kPa
Hmdx Definition


Wind Chill Definition


Weather Definition


TIME
00:00 Legend Double Dagger 4.0 -3.1 60 7 20 24.1 99.80     LegendNANA
01:00 Legend Double Dagger 4.3 -5.0 51 7 27 24.1 99.77     Mainly Clear
02:00 Legend Double Dagger 4.8 -2.5 59 7 26 24.1 99.73     LegendNANA
03:00 Legend Double Dagger 5.4 -1.1 63 6 30 24.1 99.71     LegendNANA
04:00 Legend Double Dagger 5.1 -0.9 65 5 26 24.1 99.71     Mainly Clear
05:00 Legend Double Dagger 4.6 -0.8 68 5 25 24.1 99.73     LegendNANA
06:00 Legend Double Dagger 5.2 0.4 71 5 26 24.1 99.70     LegendNANA
07:00 Legend Double Dagger 5.3 1.4 76 4 17 24.1 99.70     Mostly Cloudy
08:00 Legend Double Dagger 6.3 1.8 73 5 28 24.1 99.68     LegendNANA
09:00 Legend Double Dagger 6.6 3.6 81 5 28 24.1 99.70     LegendNANA
10:00 Legend Double Dagger 7.6 1.9 67 6 26 24.1 99.70     Cloudy
11:00 Legend Double Dagger 7.9 2.2 67 6 23 24.1 99.72     LegendNANA
12:00 Legend Double Dagger 7.6 2.7 71 4 19 24.1 99.73     LegendNANA
13:00 Legend Double Dagger 6.8 3.8 81 3 22 19.3 99.75     Rain
14:00 Legend Double Dagger 6.1 4.3 88 36 19 19.3 99.72     Rain
15:00 Legend Double Dagger 6.8 4.8 87 1 24 19.3 99.71     Rain
16:00 Legend Double Dagger 6.5 5.0 90 1 25 19.3 99.73     Rain
17:00 Legend Double Dagger 6.3 4.0 85 1 19 24.1 99.74     Rain
18:00 Legend Double Dagger 5.8 3.2 83 1 30 24.1 99.73     LegendNANA
19:00 Legend Double Dagger 5.0 2.2 82 1 24 24.1 99.77     Cloudy
20:00 Legend Double Dagger 4.8 1.3 78 3 43 24.1 99.75     LegendNANA
21:00 Legend Double Dagger 4.2 1.7 84 3 37 24.1 99.78     LegendNANA
22:00 Legend Double Dagger 3.7 1.7 87 2 44 24.1 99.75     Cloudy
23:00 Legend Double Dagger 3.2 1.3 87 36 35 24.1 99.81     LegendNANA

Notes on Data Quality.

Legend

  • E = Estimated
  • M = Missing
  • NA = Not Available
  • ‡ = Partner data that is not subject to review by the National Climate Archives
Date modified: